Location: Lake Almanor
(40.2485°N, 121.1442°W)
Time: 17:15:19
(UTC-08:00)

STARLINK-1095 - Pass Details

Date: 31 January 2020
Orbit: 348 x 351 km, 53.0° (Epoch: 17 February)

Event Time Altitude Azimuth Distance (km) Brightness Sun altitude
Rises 18:07:37 0° 315° (NW) 2,167 7.1 -9.1°
Reaches altitude 10° 18:09:45 10° 326° (NW) 1,322 5.8 -9.5°
Maximum altitude 18:12:27 33° 33° (NNE) 626 3.5 -10.0°
Enters shadow 18:14:22 16° 91° (E) 1,030 4.4 -10.4°
